Flag for Brazil Weather past 2 weeks in Rio Branco, Acre, Brazil

Now
88 °F

Scattered clouds.


Feels Like: 94 °F
Forecast: N/A
Wind: 6 mph from Northeast

Location: Rio Branco Airport

Current Time: Jun 30, 2015 at 5:02:15 PM

Latest Report: Jun 30, 2015 at 4:00 PM


Visibility: N/A

Pressure: 29.86 "Hg

Humidity: 59%

Dew point: 72 °F

Location of Rio BrancoLocation

Historic Weather in Rio Branco — Graph

°F

Rio Branco temperature yesterday

Maximum temperature yesterday: 90 °F (at 3:00 PM)
Minimum temperature yesterday: 68 °F (at 4:00 AM)
Average temperature yesterday: 78 °F

Past Weeks' High & Low Weather Summary

 TemperatureHumidityPressure
High91 °F (Jun 28, 1:00 PM)100% (Jun 16, 5:00 AM)30.15 "Hg (Jun 16, 5:00 AM)
Low59 °F (Jun 20, 5:00 AM)38% (Jun 27, 1:00 PM)29.83 "Hg (Jun 29, 3:00 PM)
Average75 °F80%30.00 "Hg
* Reported Jun 15 4:00 PM — Jun 30 4:00 PM, Rio Branco, Weather by CustomWeather, © 2015

Note: Actual official high and low records may vary slightly from our data, if they occured in-between our weather recording intervals... More about our weather records

Advertising

Rio Branco weather history for previous 24 hours

 ConditionsComfort  
Time TempWeatherWind HumidityBarometerVisibility
4:00 PM
Tue, Jun 30
88 °FScattered clouds.6 mph59%29.86 "HgN/A
3:00 PM90 °FScattered clouds.6 mph52%29.86 "HgN/A
2:00 PM90 °FScattered clouds.9 mph55%29.89 "HgN/A
1:00 PM90 °FScattered clouds.12 mph55%29.92 "HgN/A
12:00 PM90 °FScattered clouds.9 mph55%29.95 "HgN/A
11:00 AM88 °FScattered clouds.13 mph59%29.98 "HgN/A
10:00 AM86 °FScattered clouds.9 mph66%30.01 "HgN/A
9:00 AM84 °FPassing clouds.9 mph70%30.01 "HgN/A
8:00 AM81 °FScattered clouds.7 mph74%30.01 "HgN/A
7:00 AM73 °FScattered clouds.2 mph89%29.98 "HgN/A
6:00 AM70 °FPassing clouds.No wind100%29.95 "HgN/A
5:00 AM70 °FClear.2 mph94%29.92 "Hg10 mi
4:00 AM70 °FClear.3 mph94%29.89 "Hg10 mi
3:00 AM73 °FClear.3 mph89%29.89 "Hg10 mi
2:00 AM72 °FClear.2 mph94%29.89 "Hg10 mi
1:00 AM72 °FClear.No wind94%29.89 "Hg10 mi
12:00 AM72 °FClear.2 mph94%29.92 "Hg10 mi
11:00 PM
Mon, Jun 29
73 °FClear.No wind89%29.92 "Hg10 mi
10:00 PM75 °FClear.2 mph89%29.92 "Hg10 mi
9:00 PM73 °FClear.3 mph94%29.92 "Hg10 mi
8:00 PM75 °FClear.2 mph89%29.89 "Hg10 mi
7:00 PM77 °FClear.2 mph83%29.89 "Hg10 mi
6:00 PM79 °FPassing clouds.No wind79%29.86 "HgN/A
5:00 PM86 °FPassing clouds.5 mph62%29.86 "HgN/A
Weather by CustomWeather, © 2015

See weather overviewHow to use our weather pages